• en France
  • Liste des pays
  • À 7 jours
  • Température de l'eau
  • Carte satellitaire
  • Carte météo
  • Widgets météo
  • user-avatar
    Se connecter

    Météo par heure à Kapan

    Ce jour, 24 Septembre, Dimanche

    Heure Température Précipitation Vent Pression Humidité
    00:00 +21°C° 0 mm 1 m/s 685 mmHg 79%
    01:00 +20°C° 0 mm 1 m/s 685 mmHg 80%
    02:00 +20°C° 0 mm 1 m/s 686 mmHg 80%
    03:00 +20°C° 0 mm 1 m/s 685 mmHg 81%
    04:00 +20°C° 0 mm 1 m/s 685 mmHg 82%
    05:00 +20°C° 0 mm 1 m/s 686 mmHg 83%
    06:00 +18°C° 0 mm 2 m/s 686 mmHg 83%
    07:00 +20°C° 0 mm 2 m/s 686 mmHg 76%
    08:00 +21°C° 0 mm 2 m/s 687 mmHg 69%
    09:00 +24°C° 0 mm 2 m/s 687 mmHg 63%
    10:00 +25°C° 0 mm 2 m/s 687 mmHg 59%
    11:00 +25°C° 0 mm 3 m/s 687 mmHg 55%
    12:00 +26°C° 0 mm 3 m/s 687 mmHg 51%
    13:00 +26°C° 0 mm 3 m/s 687 mmHg 51%
    14:00 +26°C° 0 mm 3 m/s 687 mmHg 52%
    15:00 +26°C° 0 mm 3 m/s 687 mmHg 52%
    16:00 +25°C° 0 mm 3 m/s 686 mmHg 58%
    17:00 +24°C° 0 mm 3 m/s 686 mmHg 64%
    18:00 +21°C° 0 mm 2 m/s 686 mmHg 70%
    19:00 +21°C° 0 mm 2 m/s 687 mmHg 73%
    20:00 +20°C° 0 mm 2 m/s 687 mmHg 77%
    21:00 +19°C° 0 mm 2 m/s 687 mmHg 80%
    22:00 +20°C° 0 mm 1 m/s 687 mmHg 81%
    23:00 +20°C° 0 mm 1 m/s 687 mmHg 81%

    Demain, 25 Septembre, Lundi

    Heure Température Précipitation Vent Pression Humidité
    00:00 +19°C° 0 mm 1 m/s 687 mmHg 82%
    01:00 +19°C° 0 mm 1 m/s 687 mmHg 83%
    02:00 +19°C° 0 mm 1 m/s 687 mmHg 83%
    03:00 +18°C° 0 mm 1 m/s 687 mmHg 84%
    04:00 +18°C° 0 mm 1 m/s 687 mmHg 84%
    05:00 +18°C° 0 mm 1 m/s 687 mmHg 84%
    06:00 +18°C° 0 mm 1 m/s 687 mmHg 84%
    07:00 +19°C° 0 mm 1 m/s 688 mmHg 75%
    08:00 +20°C° 0 mm 2 m/s 688 mmHg 66%
    09:00 +23°C° 0 mm 2 m/s 688 mmHg 56%
    10:00 +24°C° 0 mm 2 m/s 688 mmHg 51%
    11:00 +25°C° 0 mm 2 m/s 688 mmHg 47%
    12:00 +26°C° 0 mm 3 m/s 688 mmHg 42%
    13:00 +26°C° 0 mm 3 m/s 688 mmHg 42%
    14:00 +26°C° 0 mm 3 m/s 687 mmHg 43%
    15:00 +26°C° 0 mm 3 m/s 687 mmHg 43%
    16:00 +25°C° 0,2 mm 3 m/s 687 mmHg 50%
    17:00 +22°C° 0,2 mm 3 m/s 687 mmHg 56%
    18:00 +21°C° 0,2 mm 3 m/s 686 mmHg 63%
    19:00 +20°C° 0,1 mm 2 m/s 687 mmHg 67%
    20:00 +19°C° 0,1 mm 2 m/s 687 mmHg 72%
    21:00 +19°C° 0,1 mm 2 m/s 687 mmHg 76%
    22:00 +18°C° 0 mm 2 m/s 687 mmHg 77%
    23:00 +19°C° 0 mm 1 m/s 687 mmHg 79%

    Après-demain, 26 Septembre, Mardi

    Heure Température Précipitation Vent Pression Humidité
    00:00 +18°C° 0 mm 1 m/s 687 mmHg 80%
    01:00 +18°C° 0 mm 1 m/s 687 mmHg 80%
    02:00 +18°C° 0 mm 1 m/s 686 mmHg 80%
    03:00 +16°C° 0 mm 1 m/s 686 mmHg 80%
    04:00 +16°C° 0 mm 1 m/s 686 mmHg 79%
    05:00 +16°C° 0 mm 1 m/s 686 mmHg 79%
    06:00 +16°C° 0 mm 1 m/s 686 mmHg 78%
    07:00 +18°C° 0 mm 1 m/s 686 mmHg 69%
    08:00 +19°C° 0 mm 2 m/s 686 mmHg 61%
    09:00 +21°C° 0 mm 2 m/s 687 mmHg 52%
    10:00 +23°C° 0 mm 2 m/s 687 mmHg 48%
    11:00 +25°C° 0 mm 3 m/s 686 mmHg 45%
    12:00 +26°C° 0 mm 3 m/s 686 mmHg 41%
    13:00 +26°C° 0 mm 3 m/s 686 mmHg 42%
    14:00 +26°C° 0 mm 3 m/s 686 mmHg 42%
    15:00 +26°C° 0 mm 3 m/s 685 mmHg 43%
    16:00 +24°C° 0 mm 3 m/s 685 mmHg 52%
    17:00 +22°C° 0 mm 3 m/s 685 mmHg 61%
    18:00 +20°C° 0 mm 3 m/s 684 mmHg 70%
    19:00 +19°C° 0 mm 3 m/s 685 mmHg 74%
    20:00 +19°C° 0 mm 3 m/s 685 mmHg 78%
    21:00 +18°C° 0 mm 2 m/s 685 mmHg 82%
    22:00 +18°C° 0 mm 2 m/s 685 mmHg 83%
    23:00 +17°C° 0 mm 2 m/s 685 mmHg 84%

    27 Septembre, Mercredi

    Heure Température Précipitation Vent Pression Humidité
    00:00 +17°C° 0 mm 2 m/s 685 mmHg 85%
    01:00 +17°C° 0,1 mm 2 m/s 685 mmHg 85%
    02:00 +17°C° 0,1 mm 2 m/s 685 mmHg 85%
    03:00 +17°C° 0,1 mm 2 m/s 684 mmHg 84%
    04:00 +16°C° 0 mm 2 m/s 684 mmHg 85%
    05:00 +16°C° 0 mm 1 m/s 684 mmHg 85%
    06:00 +16°C° 0 mm 1 m/s 684 mmHg 86%
    07:00 +18°C° 0 mm 1 m/s 685 mmHg 77%
    08:00 +19°C° 0 mm 2 m/s 685 mmHg 68%
    09:00 +21°C° 0 mm 2 m/s 686 mmHg 59%
    10:00 +22°C° 0 mm 3 m/s 685 mmHg 55%
    11:00 +24°C° 0 mm 3 m/s 685 mmHg 52%
    12:00 +25°C° 0 mm 4 m/s 685 mmHg 49%
    13:00 +23°C° 0,1 mm 4 m/s 684 mmHg 52%
    14:00 +22°C° 0,1 mm 4 m/s 684 mmHg 56%
    15:00 +22°C° 0,1 mm 4 m/s 683 mmHg 59%
    16:00 +20°C° 0,1 mm 4 m/s 683 mmHg 66%
    17:00 +19°C° 0,1 mm 3 m/s 683 mmHg 73%
    18:00 +17°C° 0,1 mm 3 m/s 683 mmHg 80%
    19:00 +17°C° 0 mm 3 m/s 684 mmHg 82%
    20:00 +17°C° 0 mm 3 m/s 684 mmHg 84%
    21:00 +16°C° 0 mm 3 m/s 685 mmHg 85%
    22:00 +16°C° 0 mm 3 m/s 685 mmHg 86%
    23:00 +16°C° 0 mm 2 m/s 685 mmHg 86%

    28 Septembre, Jeudi

    Heure Température Précipitation Vent Pression Humidité
    00:00 +16°C° 0 mm 2 m/s 685 mmHg 87%
    01:00 +15°C° 0 mm 2 m/s 685 mmHg 87%
    02:00 +15°C° 0 mm 2 m/s 685 mmHg 88%
    03:00 +15°C° 0 mm 2 m/s 685 mmHg 89%
    04:00 +15°C° 0 mm 2 m/s 685 mmHg 89%
    05:00 +15°C° 0 mm 2 m/s 685 mmHg 89%
    06:00 +15°C° 0 mm 2 m/s 685 mmHg 89%
    07:00 +16°C° 0 mm 2 m/s 686 mmHg 83%
    08:00 +16°C° 0 mm 2 m/s 686 mmHg 76%
    09:00 +17°C° 0 mm 2 m/s 687 mmHg 70%
    10:00 +18°C° 0 mm 3 m/s 686 mmHg 67%
    11:00 +19°C° 0 mm 3 m/s 686 mmHg 65%
    12:00 +19°C° 0 mm 3 m/s 686 mmHg 63%
    13:00 +19°C° 0 mm 3 m/s 686 mmHg 65%
    14:00 +18°C° 0 mm 3 m/s 686 mmHg 68%
    15:00 +18°C° 0 mm 4 m/s 686 mmHg 70%
    16:00 +17°C° 0 mm 3 m/s 686 mmHg 75%
    17:00 +16°C° 0 mm 3 m/s 686 mmHg 79%
    18:00 +14°C° 0 mm 3 m/s 686 mmHg 84%
    19:00 +14°C° 0 mm 3 m/s 686 mmHg 85%
    20:00 +14°C° 0 mm 3 m/s 687 mmHg 86%
    21:00 +13°C° 0 mm 3 m/s 687 mmHg 87%
    22:00 +13°C° 0 mm 3 m/s 687 mmHg 87%
    23:00 +13°C° 0 mm 3 m/s 687 mmHg 87%

    29 Septembre, Vendredi

    Heure Température Précipitation Vent Pression Humidité
    00:00 +13°C° 0 mm 3 m/s 687 mmHg 87%
    01:00 +14°C° 0 mm 2 m/s 687 mmHg 87%
    02:00 +14°C° 0 mm 2 m/s 687 mmHg 87%
    03:00 +14°C° 0 mm 2 m/s 687 mmHg 87%
    04:00 +14°C° 0 mm 2 m/s 687 mmHg 88%
    05:00 +13°C° 0 mm 2 m/s 687 mmHg 89%
    06:00 +13°C° 0 mm 2 m/s 687 mmHg 90%
    07:00 +14°C° 0 mm 2 m/s 688 mmHg 83%
    08:00 +15°C° 0 mm 2 m/s 688 mmHg 76%
    09:00 +16°C° 0 mm 2 m/s 688 mmHg 70%
    10:00 +18°C° 0 mm 3 m/s 688 mmHg 63%
    11:00 +19°C° 0 mm 3 m/s 688 mmHg 57%
    12:00 +20°C° 0 mm 3 m/s 688 mmHg 51%
    13:00 +20°C° 0 mm 3 m/s 687 mmHg 52%
    14:00 +20°C° 0 mm 3 m/s 687 mmHg 53%
    15:00 +20°C° 0 mm 3 m/s 686 mmHg 54%
    16:00 +19°C° 0 mm 3 m/s 686 mmHg 61%
    17:00 +18°C° 0 mm 3 m/s 686 mmHg 68%
    18:00 +16°C° 0 mm 3 m/s 685 mmHg 75%
    19:00 +16°C° 0 mm 3 m/s 685 mmHg 77%
    20:00 +15°C° 0 mm 2 m/s 686 mmHg 78%
    21:00 +15°C° 0 mm 2 m/s 686 mmHg 80%
    22:00 +14°C° 0 mm 2 m/s 685 mmHg 81%
    23:00 +14°C° 0 mm 2 m/s 685 mmHg 81%
    Voir plus